Current Conditions for Foresthill, CA. Clear skies, Dry   
Visibility: 10 miles
Space WX Alerts: EXTENDED WARNING:  Geomagnetic K-index of 4 expected ( Latest Alert ) - Issue Time: 2018 Jul 06 0255 UTC

  Summary / Temperature 

Current Temperature
75.2°F
24°C
(24/hr Ago)
75.0°F
(Apparent temp)
77.5°F
Comfortable
Heat Index
76.4°F 

81.3°F/ 27.4°C
Little or no discomfort

 Temp Rate:

 24/hr Difference:

 Avg Running Temp:

 Todays High:

 Todays Low:

 Y-days High:

 Y-days Low:

 Todays HeatIdx:

 Y-days HeatIdx:

 Evapotranspiration:

-2.8°F/hr 

+0.2°F

77.1°F

91.0°F 3:37pm

71.0°F 6:35am

89.5°F 2:50pm

72.6°F 6:14am

90.6°F 1:55pm

88.9°F 1:27pm

0.231 in

115' Above Ground

 Temperature:

 6'AGL VRS 115'AGL:

 Avg Running Temp:

 Humidity:

 Todays High:

 Todays Low:

 Y-days High:

 Y-days Low:

80.0°F 

+4.8°F

81.9°F

47% 

92.0°F 4:04pm

73.0°F 6:05am

90.0°F 3:37pm

75.0°F 4:06am

Temp & Humidity Graphs

  Wind 

Wind Speed

 Calm

Gusting to

 1.0 mph

Calm

261°  

Calm

 Avg speed:

 Wind Run:

 Peak Gust:

Calm 

39.0 miles

  16.0 mph 3:22am

  Almanac  

Moon age: 4 days,16 hours,26 minutes,23%

Waxing Crescent
23%
Illuminated
4 days in cycle

 Moonrise:

 Moonset:

 Sunrise:

 Sunset:

 Solar Noon:

10:02am

11:20pm

5:51am

8:28pm

1:10pm

1min 20s less daylight tomorrow 

  Solar Radiation 

(Current Solar)
  No Sun Light
(Todays High)
 921 W/m2@12:48pm

Rain

 Rain Today:

 Rain Rate (/hr):

 Rain last hour:

 Rain Yesterday:

 This Month:

 Season Total:

51 Days Since Last Rain Day

0.00 in

0.000 in

0.00 in

0.00 in

0.00 in

0.00 in

Updated Time

Updated: 7/16/18  10:42pm

(Updated  sec ago)

Humidity & Barometer

 Humidity:

 Wetbulb:

 Dew Point:

 Barometer:

54% 

64.4°F 

57.4°F 

29.906 inHg 

 Baro Trend:  Steady 
Northern Calif
Preparedness
Fire 
Level 

    UV Index  

(Current UV)
0.0  None
(Todays High) @ 12:58pm
9.3   Very High

National Weather Service Forecast

Tonight

Tonight: Haze
Haze
Tuesday

Tuesday: Haze then Sunny
Haze then Sunny
Tuesday
Night
Tuesday Night: Mostly Clear
Mostly Clear
Wednesday

Wednesday: Sunny
Sunny
Wednesday
Night
Wednesday Night: Partly Cloudy
Partly Cloudy
Thursday

Thursday: Mostly Sunny
Mostly Sunny
Lo 71 °F Hi 94 °F Lo 73 °F Hi 96 °F Lo 74 °F Hi 92 °F

Foresthill Probe 2 Stats  
Foresthill Probe 2: is located on Thomas Street
at 3000 feet. The main Foresthill Weather site
is located on Melody ln at the 2860 foot elevation

Calm
75.3°F
24.1°C
Temp Rate:
-3.4°F
Calm
Gusting to
None
(Humidity)
56%
Calm
256°  
Updated: 16/07/18 - 22:37:58
 Todays High: 94.9°F 15:29
 Todays Low: 69.7°F 05:43
 Rain Today: 0.00 in
 Season Total: 0.00 in

Foresthill Wx: Monthly,Yearly, Highs and Lows 

Foresthill  
This Weather Data is coming from the main Foresthill
Weather site located on Melody ln at the 2860 foot
elevation
Not Foresthill Probe 2
Weather Data
Month
  High
Month
  Low
Year
High
Year
Low
Temp 91.0°F
7/16/18
60.2°F
7/5/18
91.4°F
6/24/18
21.9°F
2/23/18
Humidity 73%
7/4/18
12%
7/8/18
100%
1/8/18
12%
7/8/18
Heat Index 90.6°F
7/16/18
63.2°F
7/5/18
90.6°F
7/16/18
27.1°F
2/20/18
Wind Chill 91.0°F
7/16/18
58.8°F
7/5/18
91.4°F
6/24/18
9.2°F
2/23/18
Wind Gust 20 mph
7/3/18
0 mph
7/1/18
43 mph
3/1/18
0 mph
1/1/18
Barometer 30.18 in
7/5/18
29.73 in
7/3/18
30.55 in
1/27/18
29.60 in
6/16/18
ET 0.25 in
7/8/18
0.00 in
7/1/18
0.25 in
6/24/18
0.00 in
1/1/18
Dew Point 65.3°F
7/15/18
28.9°F
7/8/18
65.3°F
7/15/18
7.6°F
2/11/18
Pacific Satellite US Radar Satellite Imagery Sacramento,CA.  (click to enlarge)
NWS Weather Forecast - Summary
Updated: Monday, July 16, 2018 - 1:27pm PDT
Current Interstate Highway Conditions for I-80 & US-50

[I 80: IN THE SAN FRANCISCO BAY AREA - SOLANO CO]
no traffic restrictions are reported for this area.

[I 80: IN THE NORTHERN CALIFORNIA AREA & SIERRA NEVADA]
no traffic restrictions are reported for this area.

[US 50: IN THE SACRAMENTO VALLEY & THE LAKE TAHOE BASIN]
no traffic restrictions are reported for this area.
NWS Weather Forecast: Tonight and Tuesday (Updated: Mon, 16-Jul-2018 6:49pm PDT)
Tonight

Tonight: Haze
Haze

Lo 71 °F
NWS forecast: Haze and areas of smoke. Clear, with a low around 71. Northeast wind 6 to 9 mph.
Tuesday

Tuesday: Haze then Sunny
Haze then Sunny

Hi 94 °F
NWS forecast: Haze and areas of smoke before 11am. Sunny, with a high near 94. North northwest wind around 8 mph.
YR.NO 10 Day Weather forecast
Last update: 07/16/2018 @ 12:38
Next update: 07/17/2018 @ 01:00
Provided by: 22
      Temperature Precipitation Pressure Wind  
Today
07/16/2018
21:00 00:00 77°F   29.92 inHg Light air from south-southeast 2 mph
    (Click to enlarge)
meteogram

    Forecast for next 9 days

      Temperature Precip Pressure Wind  
Tuesday
07/17/2018
00:00 06:00 64°F   29.93 inHg Light air from east-northeast 3 mph
  06:00 12:00 61°F   29.94 inHg Light breeze from east-northeast 6 mph
  12:00 18:00 93°F   29.94 inHg Light breeze from west-southwest 7 mph
  18:00 00:00 91°F   29.87 inHg Light breeze from west-southwest 5 mph
      Temperature Precip Pressure Wind  
Wednesday
07/18/2018
00:00 06:00 66°F   29.94 inHg Light breeze from east-northeast 5 mph
  06:00 12:00 63°F   29.91 inHg Light breeze from east-northeast 6 mph
  12:00 18:00 97°F   29.91 inHg Light breeze from west-southwest 7 mph
  18:00 00:00 95°F   29.81 inHg Light breeze from west 6 mph
      Temperature Precip Pressure Wind  
Thursday
07/19/2018
00:00 06:00 70°F   29.86 inHg Light breeze from east-northeast 5 mph
  05:00 11:00 64°F   29.85 inHg Light breeze from east-northeast 6 mph
  11:00 17:00 93°F   29.87 inHg Light breeze from southwest 7 mph
  17:00 23:00 93°F   29.81 inHg Light breeze from southwest 6 mph
  23:00 05:00 73°F   29.88 inHg Light air from east-southeast 2 mph
      Temperature Precip Pressure Wind  
Friday
07/20/2018
05:00 11:00 61°F   29.88 inHg Light air from east-northeast 2 mph
  11:00 17:00 88°F   29.91 inHg Light breeze from west-southwest 5 mph
  17:00 23:00 91°F   29.84 inHg Light breeze from west-southwest 7 mph
  23:00 05:00 73°F   29.92 inHg Light air from east-southeast 3 mph
      Temperature Precip Pressure Wind  
Saturday
07/21/2018
05:00 11:00 64°F   29.92 inHg Light air from east 3 mph
  11:00 17:00 84°F   29.95 inHg Light breeze from southwest 6 mph
  17:00 23:00 90°F   29.90 inHg Light breeze from west-southwest 7 mph
  23:00 05:00 72°F   29.97 inHg Light air from east-southeast 2 mph
      Temperature Precip Pressure Wind  
Sunday
07/22/2018
05:00 11:00 63°F   29.97 inHg Light breeze from east-northeast 4 mph
  11:00 17:00 88°F   29.99 inHg Light breeze from west-southwest 6 mph
  17:00 23:00 90°F   29.96 inHg Light breeze from west-southwest 7 mph
  23:00 05:00 72°F   30.02 inHg Light air from east-southeast 3 mph
      Temperature Precip Pressure Wind  
Monday
07/23/2018
05:00 11:00 64°F   30.01 inHg Light air from east-northeast 3 mph
  11:00 17:00 86°F   30.02 inHg Light breeze from west-southwest 6 mph
  17:00 23:00 90°F   29.96 inHg Light breeze from west-southwest 7 mph
  23:00 05:00 72°F   30.01 inHg Light air from east-southeast 2 mph
      Temperature Precip Pressure Wind  
Tuesday
07/24/2018
05:00 11:00 64°F   29.99 inHg Light breeze from east-northeast 5 mph
  11:00 17:00 90°F   30.02 inHg Light breeze from west-southwest 6 mph
  17:00 23:00 93°F   29.95 inHg Light breeze from west-southwest 7 mph
  23:00 05:00 75°F   30.01 inHg Light air from east-northeast 2 mph
      Temperature Precip Pressure Wind  
Wednesday
07/25/2018
05:00 11:00 64°F   29.97 inHg Light breeze from east-northeast 6 mph
  11:00 17:00 91°F   29.99 inHg Light breeze from west-southwest 6 mph
  17:00 23:00 93°F   29.95 inHg Light breeze from west-southwest 7 mph
  23:00 05:00 73°F   29.99 inHg Light breeze from east 4 mph

NOAA Local Storm Report
14 MILES SOUTH-SOUTHEAST OF BROADUS   ( More )
DATE
07/14/2018
TIME
9:05 PM
COUNTY
POWDER RIVER
STATE
MT
GEOGRAPHIC
45.25N 105.32W
SOURCE
TRAINED SPOTTER
HAIL MEASURED AT 0.25 INCH
How Close Are We To this Month's Temperature Record ?
Updated Monday, Jul 16, 2018- 10:35:01 PM

Current Temperature: 75.2°F

July's High: Temperature Record 98.1°F - Set on Wed, Jul 29, 2015 - 2:57:00 PM
We are currently 22.9°F Less than this Month's record High

July's Low: Temperature Record 51.4°F - Set on Sun, Jul 10, 2016 - 7:04:00 AM
We are currently 23.8°F More than this Month's record Low

Weather History For Tuesday, July 17, 2018


On this Day - In Weather History ...
Data courtesy of weatherforyou.com
powered by Cumulus v1.9.3 (1059)
Ambient Weather VWS v14.00
Top Contact Website Map Copyright © 2007 - 2018 Foresthillweather.com Never base important decisions on this or any weather information obtained from the Internet